This is the latest recevied weather packets stored in our database for station/object SP6PWT-13. If no packets are shown the sender has not sent any weather packets the latest 1 day(s).
| Time | Temp. | Humidity | Pressure | Rain* | Wind** | Luminosity | Snow |
|---|---|---|---|---|---|---|---|
| 1777969947 | 20° C | 57% | 992.2 hPa | 0 mm | 0 m/s | 286 W/m² | - |
| 1777969647 | 20° C | 59% | 992.2 hPa | 0 mm | 0.45 m/s, 42° | 313 W/m² | - |
| 1777969336 | 20° C | 59% | 992.2 hPa | 0 mm | 0.45 m/s, 52° | 297 W/m² | - |
| 1777969036 | 19.44° C | 61% | 992.4 hPa | 0 mm | 0 m/s | 235 W/m² | - |
| 1777968735 | 19.44° C | 62% | 992.4 hPa | 0 mm | 0.45 m/s, 115° | 275 W/m² | - |
| 1777968434 | 18.33° C | 66% | 992.6 hPa | 0 mm | 0 m/s | 271 W/m² | - |
| 1777968134 | 17.78° C | 66% | 992.3 hPa | 0 mm | 0 m/s | 276 W/m² | - |
| 1777967833 | 17.78° C | 66% | 992.4 hPa | 0 mm | 0.45 m/s, 66° | 267 W/m² | - |
| 1777967533 | 18.33° C | 65% | 992.5 hPa | 0 mm | 0.89 m/s, 59° | 228 W/m² | - |
| 1777967232 | 17.78° C | 67% | 992.6 hPa | 0 mm | 0 m/s | 204 W/m² | - |
| 1777966931 | 17.78° C | 68% | 992.6 hPa | 0 mm | 0 m/s | 190 W/m² | - |
| 1777966630 | 17.78° C | 68% | 992.6 hPa | 0 mm | 0 m/s | 160 W/m² | - |
| 1777966329 | 17.22° C | 69% | 992.6 hPa | 0 mm | 0 m/s | 130 W/m² | - |
| 1777966029 | 17.22° C | 69% | 992.5 hPa | 0 mm | 0.45 m/s, 78° | 123 W/m² | - |
| 1777965728 | 16.67° C | 69% | 992.7 hPa | 0 mm | 0 m/s | 114 W/m² | - |
| 1777965428 | 16.67° C | 71% | 992.6 hPa | 0 mm | 0 m/s | 106 W/m² | - |
| 1777965127 | 16.67° C | 72% | 992.3 hPa | 0 mm | 0.89 m/s, 107° | 98 W/m² | - |
| 1777964827 | 16.11° C | 72% | 992.4 hPa | 0 mm | 1.79 m/s, 56° | 115 W/m² | - |
| 1777964526 | 16.11° C | 73% | 992.5 hPa | 0 mm | 0.89 m/s, 67° | 124 W/m² | - |
| 1777964226 | 16.11° C | 72% | 992.6 hPa | 0 mm | 1.34 m/s, 44° | 111 W/m² | - |
| 1777963926 | 16.11° C | 73% | 992.5 hPa | 0 mm | 0 m/s | 105 W/m² | - |
| 1777963624 | 16.11° C | 73% | 992.5 hPa | 0 mm | 1.34 m/s, 61° | 114 W/m² | - |
| 1777963324 | 16.11° C | 72% | 992.7 hPa | 0 mm | 0.89 m/s, 70° | 99 W/m² | - |
| 1777963024 | 16.11° C | 72% | 992.6 hPa | 0 mm | 0.45 m/s, 78° | 82 W/m² | - |
| 1777962723 | 16.11° C | 73% | 992.6 hPa | 0 mm | 0 m/s | 82 W/m² | - |
* Rain latest hour (hover to see other rain measurements)
** Current wind speed in m/s (hover to see current wind gust speed)